Sanford, FL (32771)

3:57 AM EST on February 07, 2016 (GMT -0500)
Lake Monroe | | Change Station
CLOSE
Current Station
Personal Weather Station
Location: Sanford, FL
Elevation: 13 ft
Nearby Weather Stations
Active Advisory: Lake Wind Advisory

Elev 13 ft 28.82 °N, 81.32 °W | Updated 10 seconds ago

Mostly Cloudy
Mostly Cloudy
45.7 °F
Feels Like 44 °F
N
3.4
Wind Variable Wind from SSW
Gusts 7.4 mph

Today
High -- | Low -- °F
--% Chance of Precip.
Yesterday
High -- | Low -- °F
Precip. -- in
Pressure 29.97 in
Visibility 10.0 miles
Clouds Mostly Cloudy 900 ft
Overcast 2400 ft
Windchill 44 °F
Dew Point 44 °F
Humidity 94%
Rainfall 0.00 in
Snow Depth Not available.
7:10 AM 6:08 PM
Waning Crescent, 2% visible
METAR KSFB 070853Z AUTO 31012G20KT 10SM BKN009 OVC024 07/06 A2997 RMK AO2 CIG 007V013 SLP149 T00720056 55006
Pressure 29.97 in
Visibility 10.0 miles
Clouds Mostly Cloudy 900 ft
Overcast 2400 ft
Windchill 44 °F
Dew Point 44 °F
Humidity 94%
Rainfall 0.00 in
Snow Depth Not available.
7:10 AM 6:08 PM
Waning Crescent, 2% visible
METAR KSFB 070853Z AUTO 31012G20KT 10SM BKN009 OVC024 07/06 A2997 RMK AO2 CIG 007V013 SLP149 T00720056 55006

10-Day Weather Forecast

Almanac

Astronomy

Feb. 07, 2016 Rise Set
Actual Time
Civil Twilight
Nautical Twilight
Astronomical Twilight
Moon
Length of Visible Light
Length of Day
Tomorrow will be .
, % of the Moon is Illuminated

Today's Extremes

State Highs State Lows

Community

WunderPhotos

Upload Photos

1,891,171 photos uploaded!

WunderBlog® & News

Nearby

Air Quality

  Air Quality AQ Index Pollutant
Not available.

Snow Depth

Station Depth Elevation

Earthquake Activity

City Distance Mag. Time & Date
Minimum magnitude displayed is 2.5.

Coastal Water Temperatures

Place Temperature

Stations

Nearby Weather Stations

Station Location Temp. Windchill Dew Point Humidity Wind Precip. Elev Updated Type
                   

Watches & Warnings

Lake Wind Advisory
Issued: 3:47 AM EST Feb. 7, 2016 – National Weather Service

... Lake Wind Advisory in effect until 6 PM EST this evening...

The National Weather Service in Melbourne has issued a lake Wind
Advisory... which is in effect until 6 PM EST this evening.

* Winds... northwest winds around 20 mph today with gusts up to 30
to 35 mph.

* Impacts... choppy conditions on Open Lakes and other larger
bodies of water will make operation of small boats potentially
hazardous.

Precautionary/preparedness actions...

A lake Wind Advisory indicates that winds will cause rough chop
on area lakes. Small boats will be especially prone to capsizing.



Weitlich